Location: Newark
(15.4608°S, 41.1635°W)
Time: 01:27:44
(UTC+00:00)

Tiros 1 - Visible Passes

Search period start: 05 October 2022 00:00
Search period end: 15 October 2022 00:00
Orbit: 629 x 663 km, 48.4° (Epoch: 04 October)

Date Brightness Start Highest point End Pass type
(mag) Time Alt. Az. Time Alt. Az. Time Alt. Az.
05 Oct 8.3 21:22:42 10° WSW 21:27:12 43° NW 21:31:42 10° NNE visible
06 Oct 9.9 21:50:13 10° W 21:52:38 14° NW 21:55:04 10° NNW visible
08 Oct 9.8 20:58:54 10° W 21:01:46 16° NW 21:04:38 10° NNW visible
12 Oct 9.6 07:11:07 10° N 07:14:14 18° NE 07:17:20 10° E visible
13 Oct 7.8 07:35:06 10° NNW 07:39:41 56° NE 07:44:14 10° SE visible
14 Oct 9.6 06:21:34 13° NNE 06:23:21 15° NE 06:26:04 10° E visible
